Location: Newark
(59.8814°N, 10.8258°E)
Time: 09:06:19
(UTC+00:00)

Envisat - Pass Details

Date: 25 January 2020
Orbit: 764 x 766 km, 98.1° (Epoch: 25 February)

Event Time Altitude Azimuth Distance (km) Brightness Sun altitude
Rises 06:06:40 0° 17° (NNE) 3,250 6.3 -11.8°
Reaches altitude 10° 06:09:01 10° 20° (NNE) 2,319 5.5 -11.5°
Maximum altitude 06:14:07 66° 103° (ESE) 841 3.5 -10.9°
Drops below altitude 10° 06:19:09 10° 186° (S) 2,302 5.7 -10.3°
Sets 06:21:28 0° 189° (S) 3,224 6.4 -10.1°
